User: anonymous   Login
Location: Unspecified
(0.0000°N, 0.0000°E)
Time: 23:00:16
(UTC+02:00)
Language:

Meteor 1-31 Rocket - Orbit

View from above orbital plane
View from above orbital plane
View from above satellite
View from above satellite

Ground track
Ground track

The orbit data is extracted from the following two-line orbital elements,

1 12586U 81065B   17113.92025987 +.00000997 +00000-0 +65165-4 0  9999
2 12586 097.4930 096.7256 0019961 031.3850 328.8566 15.09911124944140
Epoch (UTC): 23 April 2017 22:05:10
Eccentricity: 0.0019961
inclination: 97.4930°
perigee height: 522 km
apogee height: 550 km
right ascension of ascending node: 96.7256°
argument of perigee: 31.3850°
revolutions per day: 15.09911124
mean anomaly at epoch: 328.8566°
orbit number at epoch: 94414

The dashed part of the orbit path shows where the satellite is in the earth's shadow,  

DLR